STARLINK-35030

Last updated on Tue Sep 16 2025 00:02:08 GMT+0000 (Coordinated Universal Time)

1 65448U 25194Q 25258.01898125 .00287212 00000+0 16265-2 0 9997 2 65448 97.5983 109.3529 0002384 1.8693 358.2581 15.78280383 3092
UTC large
Height (km)
Speed (km/s)
/
Latitude / Longitude
Inclination (degrees)
Orbital Period (minutes)
Azimuth
Elevation
Range (km)
Doppler Factor

Next 0 passes for location: London (51.5072 / 0.1276)

Sorry there are no passes over London.